Hourly Weather Golden Sands

Today, 31 October, Saturday

Time Temperature Precipitation Wind Pressure Humidity
00:00 +11°C° 2.9 mm 9 mps 762 mmHg 86%
01:00 +11°C° 2.9 mm 10 mps 762 mmHg 83%
02:00 +10°C° 0 mm 12 mps 762 mmHg 81%
03:00 +9°C° 0.3 mm 11 mps 762 mmHg 78%
04:00 +9°C° 0.3 mm 11 mps 762 mmHg 76%
05:00 +9°C° 0.3 mm 10 mps 762 mmHg 73%
06:00 +10°C° 0 mm 9 mps 762 mmHg 72%
07:00 +10°C° 0 mm 8 mps 762 mmHg 71%
08:00 +10°C° 0 mm 8 mps 763 mmHg 72%
09:00 +11°C° 0 mm 7 mps 763 mmHg 69%
10:00 +11°C° 0 mm 6 mps 762 mmHg 66%
11:00 +13°C° 0 mm 5 mps 762 mmHg 63%
12:00 +14°C° 0 mm 4 mps 762 mmHg 59%
13:00 +14°C° 0 mm 4 mps 762 mmHg 56%
14:00 +15°C° 0 mm 4 mps 761 mmHg 52%
15:00 +13°C° 1 mm 3 mps 761 mmHg 64%
16:00 +12°C° 1 mm 3 mps 761 mmHg 76%
17:00 +11°C° 1 mm 3 mps 761 mmHg 88%
18:00 +11°C° 1.3 mm 4 mps 761 mmHg 88%
19:00 +9°C° 1.3 mm 5 mps 761 mmHg 87%
20:00 +9°C° 1.3 mm 6 mps 761 mmHg 87%
21:00 +9°C° 0.8 mm 7 mps 761 mmHg 84%
22:00 +9°C° 0.8 mm 8 mps 761 mmHg 80%
23:00 +8°C° 0.8 mm 10 mps 761 mmHg 77%

Tomorrow, 1 November, Sunday

Time Temperature Precipitation Wind Pressure Humidity
00:00 +7°C° 0 mm 10 mps 761 mmHg 78%
01:00 +7°C° 0 mm 10 mps 762 mmHg 79%
02:00 +6°C° 0 mm 11 mps 762 mmHg 81%
03:00 +6°C° 0 mm 11 mps 762 mmHg 79%
04:00 +6°C° 0 mm 10 mps 762 mmHg 78%
05:00 +6°C° 0 mm 10 mps 763 mmHg 76%
06:00 +6°C° 0 mm 10 mps 763 mmHg 75%
07:00 +6°C° 0 mm 9 mps 763 mmHg 74%
08:00 +6°C° 0 mm 9 mps 764 mmHg 72%
09:00 +8°C° 0 mm 9 mps 764 mmHg 66%
10:00 +10°C° 0 mm 9 mps 764 mmHg 61%
11:00 +11°C° 0 mm 9 mps 764 mmHg 55%
12:00 +12°C° 0 mm 9 mps 764 mmHg 53%
13:00 +12°C° 0 mm 8 mps 764 mmHg 52%
14:00 +12°C° 0 mm 8 mps 764 mmHg 51%
15:00 +12°C° 0 mm 7 mps 764 mmHg 53%
16:00 +12°C° 0 mm 7 mps 763 mmHg 55%
17:00 +11°C° 0 mm 6 mps 763 mmHg 57%
18:00 +11°C° 0 mm 6 mps 764 mmHg 61%
19:00 +10°C° 0 mm 6 mps 764 mmHg 65%
20:00 +10°C° 0 mm 5 mps 764 mmHg 69%
21:00 +10°C° 0 mm 5 mps 764 mmHg 70%
22:00 +9°C° 0 mm 5 mps 764 mmHg 71%
23:00 +9°C° 0 mm 5 mps 764 mmHg 72%

Day after tomorrow, 2 November, Monday

Time Temperature Precipitation Wind Pressure Humidity
00:00 +9°C° 0 mm 5 mps 764 mmHg 72%
01:00 +9°C° 0 mm 5 mps 764 mmHg 72%
02:00 +9°C° 0 mm 5 mps 764 mmHg 71%
03:00 +8°C° 0 mm 5 mps 764 mmHg 71%
04:00 +8°C° 0 mm 5 mps 764 mmHg 70%
05:00 +8°C° 0 mm 4 mps 764 mmHg 69%
06:00 +8°C° 0 mm 4 mps 764 mmHg 67%
07:00 +10°C° 0 mm 4 mps 764 mmHg 64%
08:00 +10°C° 0 mm 4 mps 764 mmHg 62%
09:00 +12°C° 0 mm 4 mps 764 mmHg 55%
10:00 +13°C° 0 mm 4 mps 765 mmHg 49%
11:00 +15°C° 0 mm 4 mps 765 mmHg 43%
12:00 +17°C° 0 mm 4 mps 764 mmHg 41%
13:00 +17°C° 0 mm 3 mps 764 mmHg 39%
14:00 +18°C° 0 mm 3 mps 764 mmHg 37%
15:00 +17°C° 0 mm 3 mps 764 mmHg 40%
16:00 +16°C° 0 mm 2 mps 763 mmHg 44%
17:00 +15°C° 0 mm 2 mps 763 mmHg 47%
18:00 +15°C° 0 mm 2 mps 763 mmHg 49%
19:00 +14°C° 0 mm 2 mps 764 mmHg 51%
20:00 +14°C° 0 mm 2 mps 764 mmHg 53%
21:00 +14°C° 0 mm 2 mps 764 mmHg 53%
22:00 +13°C° 0 mm 3 mps 764 mmHg 53%
23:00 +13°C° 0 mm 3 mps 764 mmHg 53%

3 November, Tuesday

Time Temperature Precipitation Wind Pressure Humidity
00:00 +13°C° 0 mm 3 mps 764 mmHg 54%
01:00 +12°C° 0 mm 3 mps 763 mmHg 54%
02:00 +13°C° 0 mm 2 mps 763 mmHg 54%
03:00 +13°C° 0 mm 2 mps 763 mmHg 56%
04:00 +12°C° 0 mm 3 mps 763 mmHg 57%
05:00 +12°C° 0 mm 3 mps 763 mmHg 58%
06:00 +12°C° 0 mm 3 mps 763 mmHg 58%
07:00 +12°C° 0 mm 3 mps 764 mmHg 58%
08:00 +12°C° 0 mm 3 mps 764 mmHg 59%
09:00 +13°C° 0 mm 3 mps 764 mmHg 54%
10:00 +16°C° 0 mm 2 mps 764 mmHg 50%
11:00 +17°C° 0 mm 2 mps 764 mmHg 46%
12:00 +17°C° 0 mm 2 mps 764 mmHg 46%
13:00 +17°C° 0 mm 2 mps 764 mmHg 46%
14:00 +18°C° 0 mm 2 mps 764 mmHg 45%
15:00 +17°C° 0 mm 2 mps 764 mmHg 49%
16:00 +16°C° 0 mm 3 mps 764 mmHg 52%
17:00 +16°C° 0 mm 3 mps 763 mmHg 56%
18:00 +16°C° 0 mm 3 mps 764 mmHg 57%
19:00 +14°C° 0 mm 3 mps 764 mmHg 58%
20:00 +14°C° 0 mm 4 mps 764 mmHg 59%
21:00 +14°C° 0 mm 4 mps 764 mmHg 59%
22:00 +14°C° 0 mm 4 mps 764 mmHg 59%
23:00 +13°C° 0 mm 4 mps 764 mmHg 59%

4 November, Wednesday

Time Temperature Precipitation Wind Pressure Humidity
00:00 +13°C° 0 mm 4 mps 764 mmHg 60%
01:00 +12°C° 0 mm 4 mps 764 mmHg 60%
02:00 +12°C° 0 mm 4 mps 764 mmHg 61%
03:00 +12°C° 0 mm 4 mps 764 mmHg 62%
04:00 +12°C° 0 mm 4 mps 764 mmHg 64%
05:00 +12°C° 0 mm 4 mps 764 mmHg 65%
06:00 +12°C° 0 mm 5 mps 765 mmHg 65%
07:00 +12°C° 0 mm 5 mps 765 mmHg 66%
08:00 +12°C° 0 mm 5 mps 765 mmHg 66%
09:00 +13°C° 0 mm 5 mps 765 mmHg 66%
10:00 +14°C° 0 mm 5 mps 766 mmHg 66%
11:00 +15°C° 0 mm 5 mps 766 mmHg 66%
12:00 +15°C° 0 mm 6 mps 766 mmHg 63%
13:00 +15°C° 0 mm 6 mps 766 mmHg 61%
14:00 +16°C° 0 mm 7 mps 766 mmHg 59%
15:00 +15°C° 0 mm 7 mps 766 mmHg 60%
16:00 +14°C° 0 mm 7 mps 766 mmHg 62%
17:00 +13°C° 0 mm 8 mps 766 mmHg 63%
18:00 +12°C° 0 mm 8 mps 767 mmHg 64%
19:00 +12°C° 0 mm 8 mps 767 mmHg 65%
20:00 +11°C° 0 mm 8 mps 768 mmHg 65%
21:00 +11°C° 0 mm 8 mps 768 mmHg 65%
22:00 +10°C° 0 mm 8 mps 768 mmHg 66%
23:00 +10°C° 0 mm 8 mps 769 mmHg 66%

5 November, Thursday

Time Temperature Precipitation Wind Pressure Humidity
00:00 +10°C° 0 mm 8 mps 769 mmHg 67%
01:00 +9°C° 0 mm 8 mps 769 mmHg 68%
02:00 +9°C° 0 mm 8 mps 769 mmHg 69%
03:00 +9°C° 0 mm 8 mps 769 mmHg 70%
04:00 +7°C° 0 mm 8 mps 769 mmHg 71%
05:00 +7°C° 0 mm 8 mps 769 mmHg 72%
06:00 +7°C° 0 mm 8 mps 769 mmHg 73%
07:00 +7°C° 0 mm 9 mps 770 mmHg 74%
08:00 +7°C° 0 mm 9 mps 770 mmHg 74%
09:00 +10°C° 0 mm 9 mps 770 mmHg 70%
10:00 +11°C° 0 mm 8 mps 770 mmHg 65%
11:00 +12°C° 0 mm 8 mps 770 mmHg 61%
12:00 +13°C° 0 mm 8 mps 770 mmHg 60%
13:00 +13°C° 0 mm 8 mps 770 mmHg 59%
14:00 +15°C° 0 mm 8 mps 770 mmHg 57%
15:00 +13°C° 0 mm 8 mps 770 mmHg 60%
16:00 +13°C° 0 mm 8 mps 770 mmHg 63%
17:00 +12°C° 0 mm 8 mps 769 mmHg 66%
18:00 +12°C° 0 mm 8 mps 770 mmHg 68%
19:00 +11°C° 0 mm 7 mps 770 mmHg 70%
20:00 +11°C° 0 mm 7 mps 770 mmHg 72%
21:00 +10°C° 0 mm 7 mps 770 mmHg 72%
22:00 +10°C° 0 mm 7 mps 770 mmHg 73%
23:00 +10°C° 0 mm 7 mps 770 mmHg 74%
Show more